OPS 4682 DEB, 38401

Orbit data source: Space-Track

OPS 4682 DEB, 38401 is space debris in LEO originally from a launch on Sat, 03 Apr 1965 UTC launched from the Air Force Western Test Range (AFWTR). Debris objects in space refer to the collection of defunct objects orbiting the Earth. Examples of debris include non-operational satellites, rocket bodies, and fragments generated from explosions, collisions, or faulty payload assembly.

Loading next visibility...
Identifier
38401, 1965-027DE
Orbit
LEO
Country
Flag of USUS
Related business
Manufacturer
Unknown
Mission
Spacecraft
Bus & Motor
Unknown
Mass
Unknown
Launch date (UTC)
1965-04-03 (61 years ago)
Launch vehicle
Unknown
Launch site
Air Force Western Test Range (AFWTR)
Object type
Payload
Rocket body
Debris
Shape & HBR
Unknown shape, 0.1 m
Radar Cross Section
Small (<0.1 m²)

Expand to show TLE details & history
Last TLE update: 1 day ago

TLE from 1 day ago
0 OPS 4682 DEB
1 38401U 65027DE  26035.37294287  .00000367  00000-0  12757-2 0  9994
2 38401  90.2432   5.6241 0031266 174.1251 186.0241 12.95263885645180
Epoch: 2026-02-04T08:57Z
TLE epoch observation values (Epoch: 2026-02-04T08:57:02.263Z)
Latitude
-0.00007°
Longitude
96.82421°
Altitude
1,307.395 km
Speed
7.192 km/s
True Right ascension
00h 22m 29s
True Declination
0° 00' 00"
Sunlit
Object was in daylight at epoch
Visualization orbit readout
Latitude
Unknown
Longitude
Unknown
Altitude
Unknown
Speed
Unknown
Apparent Right ascension
Unknown
Apparent Declination
Unknown
Sunlit
N/A
Visualization observer readout
Local Sidereal Time
11:57:01
Azimuth
Unknown
Elevation
Unknown
Doppler factor
Unknown
Orbital elements
Apogee altitude
1,301.771 km
Perigee altitude
1,253.896 km
Semi-major axis
7,655.971 km
Eccentricity
0.00313
Inclination
90.2432°
RAAN
5.6241°
Arg. of periapsis
174.1251°
True anomaly
185.98665°
Mean anomaly
186.0241°
Eccentric anomaly
186.00536°
Mean motion
3.23998 °/min
Orbital period
111.11 mins
BSTAR
0.0012757
Loading maneuver chart data...
Computing Atmospheric mass density...
Loading historical data...
Loading historical data...
Loading historical data...
Loading historical data...
Loading historical data...
Loading historical data...
Loading historical data...

Documentation

Showing up to 5 results
|